Погода в Верх-Бийске

Россия / Республика Алтай     52°02′13″N   87°05′25″E
темп.,
°C
ветер,
м/с
пор.,
м/с
влажн.,
%
обл.,
%
осадки,
мм/ч
давл.,
гПа
погр.,
м
11 мая, вт
вт1101:00+4вюв1177100 0.0 101210
04:00+5в118599 0.8 101031
07:00+6св1196100 2.7 101172
10:00+5св2395100 1.6 1011162
13:00+6ссв1195100 2.2 1013206
16:00+7з0194100 0.2 1014212
19:00+9ю238670 0.2 1015406
22:00+6юв1195100 0.0 101510
12 мая, ср
ср1201:00+5вюв1194100 0.0 101510
04:00+4ююз0095100 0.0 101510
07:00+6ююв1192100 0.0 101621
10:00+7в1189100 0.0 1016133
13:00+7св1192100 0.1 1016118
16:00+9всв2280100 0.1 1016576
19:00+9ссв2282100 0.2 1017365
22:00+7ссв1197100 0.3 101823
13 мая, чт
чт1301:00+6ююз1197100 1.6 101828
04:00+6юз1198100 1.6 101828
07:00+7ююв1296100 1.6 101859
10:00+10ююз237955 0.0 1017458
13:00+15юз2155100 0.4 10151262
16:00+16сз334660 0.1 10141849
19:00+15ссв115854 0.1 101479
22:00+9зюз018682 0.4 101610
14 мая, пт
пт1401:00+7юз119393 1.3 101611
04:00+7юз1193100 0.0 101513
07:00+7ююз1399100 5.6 1016128
10:00+9зсз1290100 2.9 1017379
13:00+10з478497 6.8 10191016
16:00+11зсз477131 1.6 10201208
19:00+10з36795 2.6 1021420
22:00+6ю119192 0.6 102411
15 мая, сб
сб1501:00+5ю119479 0.6 102514
04:00+4ююз119396 0.0 102511
07:00+6ююз128915 0.0 102669
10:00+13зюз12635 0.0 1025769
13:00+17зюз224210 0.0 10231506
16:00+18ссз114290 0.0 10221554
19:00+16с1162100 0.0 102223
22:00+10св1181100 0.0 102310